TimeMST,TemperatureF,Dew PointF,Humidity,Sea Level PressureIn,VisibilityMPH,Wind Direction,Wind SpeedMPH,Gust SpeedMPH,PrecipitationIn,Events,Conditions,WindDirDegrees,DateUTC
12:51 AM,30.9,15.1,52,30.25,10.0,WSW,6.9,-,N/A,,Clear,240,2013-02-28 07:51:00
1:51 AM,30.9,15.1,52,30.23,10.0,WSW,8.1,-,N/A,,Clear,240,2013-02-28 08:51:00
2:51 AM,26.1,12.9,58,30.24,10.0,WSW,5.8,-,N/A,,Clear,240,2013-02-28 09:51:00
3:51 AM,24.1,10.9,57,30.22,10.0,Calm,Calm,-,N/A,,Clear,0,2013-02-28 10:51:00
4:51 AM,23.0,10.9,60,30.23,10.0,Calm,Calm,-,N/A,,Clear,0,2013-02-28 11:51:00
5:51 AM,25.0,12.9,60,30.26,10.0,Calm,Calm,-,N/A,,Clear,0,2013-02-28 12:51:00
7:51 AM,30.9,15.1,52,30.30,10.0,Calm,Calm,-,N/A,,Clear,0,2013-02-28 14:51:00
8:51 AM,39.0,16.0,39,30.30,10.0,Calm,Calm,-,N/A,,Clear,0,2013-02-28 15:51:00
9:51 AM,43.0,17.1,35,30.29,10.0,Variable,3.5,-,N/A,,Clear,0,2013-02-28 16:51:00
10:51 AM,48.9,16.0,27,30.26,10.0,SSE,6.9,-,N/A,,Clear,150,2013-02-28 17:51:00
11:51 AM,53.1,10.9,19,30.22,10.0,Variable,6.9,-,N/A,,Clear,0,2013-02-28 18:51:00
12:39 PM,55.4,5.0,13,30.22,10.0,North,10.4,24.2,N/A,,Clear,10,2013-02-28 19:39:00
12:51 PM,57.0,3.0,11,30.18,10.0,NNW,10.4,20.7,N/A,,Clear,340,2013-02-28 19:51:00
1:51 PM,57.0,9.0,15,30.17,10.0,North,13.8,24.2,N/A,,Clear,350,2013-02-28 20:51:00
2:51 PM,57.0,9.0,15,30.17,10.0,NNW,11.5,19.6,N/A,,Clear,340,2013-02-28 21:51:00
3:51 PM,57.0,6.1,13,30.16,10.0,NW,13.8,18.4,N/A,,Clear,310,2013-02-28 22:51:00
4:51 PM,55.9,6.1,14,30.17,10.0,NNW,9.2,-,N/A,,Clear,340,2013-02-28 23:51:00
5:51 PM,50.0,7.0,18,30.19,10.0,NE,8.1,-,N/A,,Clear,50,2013-03-01 00:51:00
6:51 PM,44.1,6.1,21,30.23,10.0,Variable,3.5,-,N/A,,Clear,0,2013-03-01 01:51:00
7:51 PM,39.9,6.1,25,30.22,10.0,South,3.5,-,N/A,,Clear,190,2013-03-01 02:51:00
8:51 PM,35.1,3.9,27,30.20,10.0,SSW,4.6,-,N/A,,Clear,200,2013-03-01 03:51:00
9:51 PM,35.1,3.9,27,30.19,10.0,WSW,6.9,-,N/A,,Clear,240,2013-03-01 04:51:00
10:51 PM,36.0,6.1,29,30.17,10.0,West,4.6,-,N/A,,Clear,260,2013-03-01 05:51:00
11:51 PM,33.1,6.1,32,30.17,10.0,Calm,Calm,-,N/A,,Clear,0,2013-03-01 06:51:00